• Join FlightAware (Why Join?)
  • Login
  • US Flag 
09:50PM EST


 

Airport Tracker/Info


-or-


 

Live Flight TrackerFlight Track Log ✈ AFR6719 ✈ 05-May-2013 ✈ KATL - LFPG / CDG

Flight Track Log - Related Links

Times and Time Zones

All times are in EDT time to prevent confusion due to time zone crossing. See the AFR6719 flight status page for this flight to view local times or setup timezone preferences in your user account.

Time Position Orientation Groundspeed Altitude Reporting Facility
EDT Latitude Longitude Course Direction KTS MPH feet Rate Location/Type
08:52AM 33.6350 -84.4440 270° West 174 200 1,500  Level FlightAware
08:53AM 33.6320 -84.4790 264° West 190 219 2,700 1,380 Climbing FlightAware
08:53AM 33.6210 -84.5060 244° Southwest 222 255 3,000 1,200 Climbing FlightAware
08:54AM 33.6050 -84.5430 243° Southwest 246 283 3,900 2,340 Climbing FlightAware
08:56AM 33.4540 -84.5250 174° South 316 364 10,100 2,220 Climbing FlightAware
08:57AM 33.4560 -84.4610 88° East 355 409 10,900 1,500 Climbing FlightAware
08:58AM 33.4580 -84.3660 89° East 393 452 12,100 1,080 Climbing FlightAware
08:58AM 33.4580 -84.2770 90° East 396 456 12,600 300 Climbing FlightAware
08:59AM 33.4580 -84.2020 90° East 396 456 12,600 3,360 Level FlightAware
08:59AM 33.5670 -84.1920 North 465 535 15,400 4,860 Climbing FlightAware
09:00AM 33.6650 -84.1400 24° Northeast 471 542 17,500 2,160 Climbing FlightAware
09:01AM 33.7490 -84.0510 41° Northeast 484 557 19,200 1,860 Climbing FlightAware
09:02AM 33.8050 -83.9540 55° Northeast 488 562 20,500 1,860 Climbing FlightAware
09:02AM 33.8620 -83.8460 58° Northeast 497 572 21,900 1,920 Climbing FlightAware
09:03AM 33.9140 -83.7450 58° Northeast 510 587 23,300 1,620 Climbing FlightAware
09:04AM 33.9700 -83.6500 55° Northeast 525 604 24,100 1,020 Climbing FlightAware
09:05AM 34.0350 -83.5460 53° Northeast 545 627 24,800 1,260 Climbing FlightAware
09:05AM 34.0990 -83.4450 53° Northeast 553 636 25,900 1,440 Climbing FlightAware
09:06AM 34.1680 -83.3370 52° Northeast 560 644 26,900 1,920 Climbing FlightAware
09:07AM 34.2300 -83.2370 53° Northeast 546 628 28,700 2,280 Climbing FlightAware
09:07AM 34.2955 -83.1330 53° Northeast 542 624 30,000 1,800 Climbing FlightAware ADS-B
09:08AM 34.3421 -83.0576 53° Northeast 537 618 30,900 1,620 Climbing FlightAware ADS-B
09:08AM 34.3882 -82.9835 53° Northeast 536 617 31,700 1,380 Climbing FlightAware ADS-B
09:09AM 34.4399 -82.9006 53° Northeast 535 616 32,400 420 Climbing FlightAware ADS-B
09:09AM 34.4790 -82.8380 53° Northeast 535 616 32,200 900 Descending FlightAware
09:10AM 34.4990 -82.8050 54° Northeast 534 615 33,000 1,260 Climbing FlightAware ADS-B
09:10AM 34.5444 -82.7313 53° Northeast 536 617 33,000  Level FlightAware ADS-B
09:11AM 34.5870 -82.6630 53° Northeast 535 616 33,000  Level FlightAware
09:11AM 34.6128 -82.6199 54° Northeast 534 615 33,000  Level FlightAware ADS-B
09:11AM 34.6571 -82.5471 53° Northeast 529 609 33,000  Level FlightAware ADS-B
09:12AM 34.7128 -82.4555 53° Northeast 519 597 33,000  Level FlightAware ADS-B
09:13AM 34.7607 -82.3772 53° Northeast 519 597 33,000  Level FlightAware ADS-B
09:13AM 34.8042 -82.3059 53° Northeast 518 596 33,000  Level FlightAware ADS-B
09:14AM 34.8508 -82.2292 53° Northeast 520 598 33,000  Level FlightAware ADS-B
09:14AM 34.8962 -82.1543 54° Northeast 524 603 33,000  Level FlightAware ADS-B
09:15AM 34.9405 -82.0810 54° Northeast 527 606 33,000  Level FlightAware ADS-B
09:15AM 34.9874 -82.0035 54° Northeast 531 611 33,000  Level FlightAware ADS-B
09:16AM 35.0338 -81.9299 52° Northeast 535 616 33,000  Level FlightAware ADS-B
09:16AM 35.0833 -81.8595 49° Northeast 539 620 33,000  Level FlightAware ADS-B
09:16AM 35.1033 -81.8335 47° Northeast 542 624 33,000  Level FlightAware ADS-B
09:17AM 35.1603 -81.7714 42° Northeast 546 628 33,000  Level FlightAware ADS-B
09:17AM 35.2201 -81.7066 42° Northeast 547 629 33,000  Level FlightAware ADS-B
09:18AM 35.2765 -81.6433 42° Northeast 546 628 33,000  Level FlightAware ADS-B
09:18AM 35.3340 -81.5773 43° Northeast 541 623 33,000  Level FlightAware ADS-B
09:19AM 35.3913 -81.5104 44° Northeast 540 621 33,000  Level FlightAware ADS-B
09:20AM 35.4498 -81.4414 44° Northeast 538 619 33,000  Level FlightAware ADS-B
09:20AM 35.5041 -81.3769 44° Northeast 536 617 33,000  Level FlightAware ADS-B
09:21AM 35.6010 -81.2610 44° Northeast 538 619 33,000  Level FlightAware
09:22AM 35.6710 -81.1780 44° Northeast 540 621 33,000  Level FlightAware
09:22AM 35.7310 -81.1070 44° Northeast 539 620 33,000  Level FlightAware
09:23AM 35.8080 -81.0140 44° Northeast 538 619 33,000  Level FlightAware
09:24AM 35.8740 -80.9360 44° Northeast 536 617 33,000  Level FlightAware
09:24AM 35.9470 -80.8490 44° Northeast 536 617 33,000  Level FlightAware
09:25AM 36.0070 -80.7760 45° Northeast 536 617 33,000  Level FlightAware
09:26AM 36.0680 -80.7040 44° Northeast 536 617 33,000  Level FlightAware
09:27AM 36.1440 -80.6130 44° Northeast 536 617 33,000  Level FlightAware
09:27AM 36.2040 -80.5410 44° Northeast 536 617 33,000  Level FlightAware
09:28AM 36.2650 -80.4680 44° Northeast 536 617 33,000  Level FlightAware
09:29AM 36.3260 -80.3960 44° Northeast 536 617 33,000  Level FlightAware
09:29AM 36.3860 -80.3230 44° Northeast 536 617 33,000  Level FlightAware
09:30AM 36.4620 -80.2320 44° Northeast 536 617 33,000  Level FlightAware
09:31AM 36.5230 -80.1590 44° Northeast 536 617 33,000  Level FlightAware
09:31AM 36.5830 -80.0860 44° Northeast 536 617 33,000  Level FlightAware
09:32AM 36.6440 -80.0130 44° Northeast 536 617 33,000  Level FlightAware
09:33AM 36.7050 -79.9400 44° Northeast 536 617 33,000  Level FlightAware
09:33AM 36.7650 -79.8670 44° Northeast 536 617 33,000  Level FlightAware
09:37AM 37.2950 -79.1720 48° Northeast 33,000  Level FlightAware
09:39AM 37.3920 -79.0410 47° Northeast 33,000  Level FlightAware
09:39AM 37.4670 -78.9390 47° Northeast 506 582 33,000  Level FlightAware
09:40AM 37.5270 -78.8540 48° Northeast 503 579 33,000  Level FlightAware
09:40AM 37.5730 -78.7880 49° Northeast 501 577 33,000  Level FlightAware
09:41AM 37.6230 -78.7160 49° Northeast 500 575 33,000  Level FlightAware
09:42AM 37.6940 -78.6140 49° Northeast 499 574 33,000  Level FlightAware
09:42AM 37.7420 -78.5470 48° Northeast 499 574 33,000  Level FlightAware
09:43AM 37.7950 -78.4690 49° Northeast 498 573 33,000  Level FlightAware
09:44AM 37.8770 -78.3510 49° Northeast 496 571 33,000  Level FlightAware
09:44AM 37.9370 -78.2650 48° Northeast 495 570 33,000  Level FlightAware
09:45AM 37.9980 -78.1770 49° Northeast 496 571 33,000  Level FlightAware
09:46AM 38.0680 -78.0870 45° Northeast 496 571 33,000  Level FlightAware
09:46AM 38.1400 -78.0140 39° Northeast 493 567 33,000  Level FlightAware
09:47AM 38.2217 -77.9324 38° Northeast 496 571 33,000  Level FlightAware ADS-B
09:48AM 38.2939 -77.8562 40° Northeast 498 573 33,000  Level FlightAware ADS-B
09:48AM 38.3602 -77.7847 40° Northeast 498 573 33,000  Level FlightAware ADS-B
09:49AM 38.4167 -77.7234 40° Northeast 497 572 33,000  Level FlightAware ADS-B
09:49AM 38.4710 -77.6643 40° Northeast 496 571 33,000  Level FlightAware ADS-B
09:50AM 38.5246 -77.6062 40° Northeast 494 568 33,000  Level FlightAware ADS-B
09:50AM 38.5788 -77.5474 40° Northeast 494 568 33,000  Level FlightAware ADS-B
09:51AM 38.6353 -77.4858 40° Northeast 492 566 33,000  Level FlightAware ADS-B
09:52AM 38.7052 -77.4099 40° Northeast 490 564 33,000  Level FlightAware ADS-B
09:52AM 38.7573 -77.3530 40° Northeast 491 565 33,000  Level FlightAware ADS-B
09:53AM 38.8104 -77.2950 40° Northeast 491 565 33,000  Level FlightAware ADS-B
09:53AM 38.8766 -77.2225 40° Northeast 491 565 33,000  Level FlightAware ADS-B
09:54AM 38.9291 -77.1651 40° Northeast 492 566 33,000  Level FlightAware ADS-B
09:54AM 38.9832 -77.1058 40° Northeast 491 565 33,000  Level FlightAware ADS-B
09:55AM 39.0395 -77.0418 41° Northeast 490 564 33,000  Level FlightAware ADS-B
09:55AM 39.0639 -77.0097 46° Northeast 492 566 33,000  Level FlightAware ADS-B
09:56AM 39.1193 -76.9262 49° Northeast 493 567 33,000  Level FlightAware ADS-B
09:56AM 39.1640 -76.8565 50° Northeast 492 566 33,000  Level FlightAware ADS-B
09:57AM 39.2113 -76.7825 50° Northeast 491 565 33,000  Level FlightAware ADS-B
09:57AM 39.2585 -76.7086 50° Northeast 492 566 33,000  Level FlightAware ADS-B
09:58AM 39.3018 -76.6406 51° Northeast 492 566 33,000  Level FlightAware ADS-B
09:58AM 39.3465 -76.5705 50° Northeast 492 566 33,000  Level FlightAware ADS-B
09:59AM 39.3952 -76.4941 50° Northeast 492 566 33,000  Level FlightAware ADS-B
10:00AM 39.4468 -76.4174 49° Northeast 491 565 33,000  Level FlightAware ADS-B
10:00AM 39.4930 -76.3550 46° Northeast 490 564 33,000  Level FlightAware
10:00AM 39.5134 -76.3297 44° Northeast 489 563 33,000  Level FlightAware ADS-B
10:01AM 39.5660 -76.2639 44° Northeast 486 559 33,000  Level FlightAware ADS-B
10:01AM 39.6150 -76.2036 43° Northeast 484 557 33,000  Level FlightAware ADS-B
10:02AM 39.6655 -76.1418 43° Northeast 483 556 33,000  Level FlightAware ADS-B
10:02AM 39.7142 -76.0818 43° Northeast 483 556 33,000  Level FlightAware ADS-B
10:03AM 39.7630 -76.0215 44° Northeast 484 557 33,000  Level FlightAware ADS-B
10:03AM 39.8134 -75.9589 44° Northeast 486 559 33,000  Level FlightAware ADS-B
10:04AM 39.8621 -75.8982 44° Northeast 484 557 33,000  Level FlightAware ADS-B
10:04AM 39.9114 -75.8365 44° Northeast 483 556 33,000  Level FlightAware ADS-B
10:05AM 39.9605 -75.7747 44° Northeast 482 555 33,000  Level FlightAware ADS-B
10:05AM 40.0110 -75.7112 44° Northeast 480 552 33,000  Level FlightAware ADS-B
10:06AM 40.0612 -75.6478 44° Northeast 479 551 33,000  Level FlightAware ADS-B
10:06AM 40.1110 -75.5849 44° Northeast 479 551 33,000  Level FlightAware ADS-B
10:07AM 40.1602 -75.5226 44° Northeast 478 550 33,000  Level FlightAware ADS-B
10:08AM 40.2108 -75.4585 44° Northeast 477 549 33,000  Level FlightAware ADS-B
10:08AM 40.2623 -75.3929 44° Northeast 478 550 33,000  Level FlightAware ADS-B
10:09AM 40.3108 -75.3309 44° Northeast 477 549 33,000  Level FlightAware ADS-B
10:09AM 40.3598 -75.2684 44° Northeast 476 548 33,000  Level FlightAware ADS-B
10:10AM 40.4071 -75.2078 44° Northeast 474 545 33,000  Level FlightAware ADS-B
10:10AM 40.4550 -75.1465 44° Northeast 473 544 33,000  Level FlightAware ADS-B
10:11AM 40.5024 -75.0854 44° Northeast 471 542 33,000  Level FlightAware ADS-B
10:11AM 40.5530 -75.0202 44° Northeast 471 542 33,000  Level FlightAware ADS-B
10:12AM 40.5995 -74.9601 44° Northeast 470 541 33,000  Level FlightAware ADS-B
10:12AM 40.6465 -74.8993 44° Northeast 469 540 33,000  Level FlightAware ADS-B
10:13AM 40.6955 -74.8359 44° Northeast 469 540 33,000  Level FlightAware ADS-B
10:13AM 40.7423 -74.7750 45° Northeast 467 537 33,000  Level FlightAware ADS-B
10:14AM 40.7887 -74.7147 45° Northeast 465 535 33,000  Level FlightAware ADS-B
10:14AM 40.8427 -74.6444 45° Northeast 464 534 33,000  Level FlightAware ADS-B
10:15AM 40.8919 -74.5798 45° Northeast 462 532 33,000  Level FlightAware ADS-B
10:15AM 40.9382 -74.5191 45° Northeast 459 528 33,000  Level FlightAware ADS-B
10:16AM 40.9858 -74.4565 45° Northeast 457 526 33,000  Level FlightAware ADS-B
10:16AM 41.0325 -74.3950 45° Northeast 457 526 33,000  Level FlightAware ADS-B
10:17AM 41.0798 -74.3326 45° Northeast 455 524 33,000  Level FlightAware ADS-B
10:17AM 41.1273 -74.2696 45° Northeast 455 524 33,000  Level FlightAware ADS-B
10:18AM 41.1747 -74.2069 45° Northeast 455 524 33,000  Level FlightAware ADS-B
10:18AM 41.2196 -74.1474 45° Northeast 453 521 33,000  Level FlightAware ADS-B
10:19AM 41.2641 -74.0880 45° Northeast 452 520 33,000  Level FlightAware ADS-B
10:19AM 41.2946 -74.0475 45° Northeast 450 518 33,000  Level FlightAware ADS-B
10:20AM 41.3092 -74.0279 45° Northeast 450 518 33,000  Level FlightAware ADS-B
10:20AM 41.3541 -73.9680 45° Northeast 448 516 33,000  Level FlightAware ADS-B
10:20AM 41.3841 -73.9278 45° Northeast 449 517 33,000  Level FlightAware ADS-B
10:21AM 41.3997 -73.9068 45° Northeast 445 512 33,000  Level FlightAware ADS-B
10:21AM 41.4460 -73.8447 45° Northeast 442 509 33,000  Level FlightAware ADS-B
10:22AM 41.4918 -73.7831 45° Northeast 440 506 33,000  Level FlightAware ADS-B
10:22AM 41.5367 -73.7225 45° Northeast 436 502 33,000  Level FlightAware ADS-B
10:23AM 41.5808 -73.6630 45° Northeast 435 501 33,000  Level FlightAware ADS-B
10:23AM 41.6266 -73.6012 45° Northeast 433 498 33,000  Level FlightAware ADS-B
10:24AM 41.6660 -73.5470 46° Northeast 432 497 33,000  Level FlightAware
10:24AM 41.6965 -73.5063 45° Northeast 432 497 33,000  Level FlightAware ADS-B
10:25AM 41.7406 -73.4462 45° Northeast 431 496 33,000  Level FlightAware ADS-B
10:25AM 41.7879 -73.3817 45° Northeast 431 496 33,000  Level FlightAware ADS-B
10:26AM 41.8400 -73.3110 45° Northeast 429 494 33,000  Level FlightAware
10:26AM 41.8771 -73.2595 46° Northeast 431 496 33,000  Level FlightAware ADS-B
10:27AM 41.9191 -73.2021 45° Northeast 431 496 33,000  Level FlightAware ADS-B
10:27AM 41.9619 -73.1432 46° Northeast 431 496 33,000  Level FlightAware ADS-B
10:28AM 42.0063 -73.0821 46° Northeast 431 496 33,000  Level FlightAware ADS-B
10:28AM 42.0460 -73.0270 46° Northeast 430 495 33,000  Level FlightAware
10:29AM 42.1110 -72.9370 46° Northeast 430 495 33,000  Level FlightAware
10:30AM 42.1600 -72.8690 46° Northeast 429 494 33,000  Level FlightAware
10:30AM 42.2150 -72.7930 46° Northeast 430 495 33,000  Level FlightAware
10:31AM 42.2710 -72.7150 46° Northeast 432 497 33,000  Level FlightAware
10:32AM 42.3340 -72.6260 46° Northeast 432 497 33,000  Level FlightAware
10:32AM 42.3900 -72.5470 46° Northeast 432 497 33,000  Level FlightAware
10:33AM 42.4450 -72.4710 46° Northeast 433 498 33,000  Level FlightAware
10:34AM 42.5060 -72.3850 46° Northeast 434 499 33,000  Level FlightAware
10:34AM 42.5480 -72.3250 46° Northeast 435 501 33,000  Level FlightAware
10:35AM 42.5990 -72.2530 46° Northeast 436 502 33,000  Level FlightAware
10:36AM 42.6590 -72.1680 46° Northeast 437 503 33,000  Level FlightAware
10:36AM 42.7150 -72.0880 46° Northeast 437 503 33,000  Level FlightAware
10:37AM 42.7800 -71.9940 47° Northeast 439 505 33,000  Level FlightAware
10:38AM 42.8260 -71.9280 46° Northeast 439 505 33,000  Level FlightAware
10:38AM 42.8830 -71.8460 46° Northeast 440 506 33,000  Level FlightAware
10:39AM 42.9320 -71.7750 47° Northeast 440 506 33,000  Level FlightAware
10:39AM 42.9800 -71.7070 46° Northeast 441 507 33,000  Level FlightAware
10:40AM 43.0440 -71.6140 47° Northeast 441 507 33,000  Level FlightAware
10:41AM 43.1010 -71.5310 47° Northeast 441 507 33,000  Level FlightAware
10:42AM 43.1620 -71.4420 47° Northeast 442 509 33,000  Level FlightAware
10:42AM 43.2160 -71.3630 47° Northeast 443 510 33,000  Level FlightAware
10:43AM 43.2730 -71.2790 47° Northeast 442 509 33,000  Level FlightAware
10:44AM 43.3380 -71.1830 47° Northeast 443 510 33,000  Level FlightAware
10:44AM 43.3940 -71.1010 47° Northeast 443 510 33,000  Level FlightAware
10:45AM 43.4540 -71.0120 47° Northeast 444 511 33,000  Level FlightAware
10:46AM 43.5100 -70.9280 47° Northeast 444 511 33,000  Level FlightAware
10:46AM 43.5520 -70.8650 47° Northeast 445 512 33,000  Level FlightAware
10:47AM 43.6090 -70.7810 47° Northeast 447 514 33,000  Level FlightAware
10:48AM 43.6660 -70.6960 47° Northeast 449 517 33,000  Level FlightAware
10:48AM 43.7270 -70.6030 48° Northeast 451 519 33,000  Level FlightAware
10:49AM 43.7840 -70.5170 47° Northeast 452 520 33,000  Level FlightAware
10:50AM 43.8400 -70.4330 47° Northeast 453 521 33,000  Level FlightAware
10:50AM 43.9060 -70.3330 47° Northeast 454 522 33,000  Level FlightAware
10:51AM 43.9620 -70.2470 48° Northeast 455 524 33,000  Level FlightAware
10:52AM 44.0250 -70.1520 47° Northeast 455 524 33,000  Level FlightAware
10:53AM 44.0810 -70.0660 48° Northeast 455 524 33,000  Level FlightAware
10:53AM 44.1370 -69.9790 48° Northeast 456 525 33,000  Level FlightAware
10:54AM 44.2020 -69.8790 48° Northeast 456 525 33,000  Level FlightAware
10:55AM 44.2590 -69.7920 48° Northeast 456 525 33,000  Level FlightAware
10:55AM 44.3210 -69.6950 48° Northeast 455 524 33,000  Level FlightAware
10:56AM 44.3630 -69.6300 48° Northeast 455 524 33,000  Level FlightAware
10:57AM 44.4180 -69.5440 48° Northeast 454 522 33,000  Level FlightAware
10:57AM 44.4750 -69.4550 48° Northeast 455 524 33,000  Level FlightAware
10:58AM 44.5300 -69.3680 48° Northeast 456 525 33,000  Level FlightAware
10:59AM 44.5940 -69.2670 48° Northeast 456 525 33,000  Level FlightAware
10:59AM 44.6520 -69.1760 48° Northeast 456 525 33,000  Level FlightAware
11:00AM 44.7050 -69.0920 48° Northeast 457 526 33,000  Level FlightAware
11:01AM 44.7670 -68.9930 49° Northeast 458 527 33,000  Level FlightAware
11:01AM 44.8270 -68.8970 49° Northeast 459 528 33,000  Level FlightAware
11:02AM 44.8810 -68.7920 54° Northeast 459 528 33,000  Level FlightAware
11:03AM 44.9250 -68.6890 59° Northeast 460 529 33,000  Level FlightAware
11:04AM 44.9760 -68.5710 59° Northeast 461 531 33,000  Level FlightAware
11:04AM 45.0210 -68.4700 58° Northeast 462 532 33,000  Level FlightAware
11:05AM 45.0710 -68.3580 58° Northeast 464 534 33,000  Level FlightAware
11:06AM 45.1160 -68.2540 58° Northeast 465 535 33,000  Level FlightAware
11:06AM 45.1680 -68.1360 58° Northeast 466 536 33,000  Level FlightAware
11:07AM 45.2130 -68.0320 58° Northeast 467 537 33,000  Level FlightAware
11:08AM 45.2590 -67.9260 58° Northeast 469 540 33,000  Level FlightAware
11:08AM 45.3050 -67.8210 58° Northeast 470 541 33,000  Level FlightAware
11:09AM 45.3540 -67.7190 56° Northeast 473 544 33,000  Level FlightAware
11:10AM 45.4170 -67.6170 49° Northeast 476 548 33,000  Level FlightAware
11:11AM 45.4950 -67.4950 48° Northeast 477 549 33,000  Level FlightAware
11:11AM 45.5550 -67.4000 48° Northeast 477 549 33,000  Level FlightAware
11:12AM 45.6130 -67.3080 48° Northeast 472 543 33,000  Level FlightAware
11:13AM 45.6660 -67.2250 48° Northeast 471 542 33,000  Level FlightAware
11:13AM 45.7090 -67.1560 48° Northeast 471 542 33,000  Level FlightAware
11:14AM 45.7680 -67.0610 48° Northeast 472 543 33,000  Level FlightAware
11:14AM 45.8110 -66.9920 48° Northeast 472 543 33,000  Level FlightAware
11:15AM 45.8780 -66.8840 48° Northeast 473 544 33,000  Level FlightAware
11:16AM 45.9350 -66.7930 48° Northeast 480 552 33,000  Level FlightAware
11:16AM 46.0000 -66.6860 49° Northeast 481 554 33,000  Level FlightAware
11:17AM 46.0640 -66.5820 48° Northeast 483 556 33,000  Level FlightAware
11:18AM 46.1240 -66.4840 49° Northeast 484 557 33,000  Level FlightAware
11:18AM 46.1790 -66.3940 49° Northeast 486 559 33,000  Level FlightAware
11:19AM 46.2310 -66.3090 48° Northeast 487 560 33,000  Level FlightAware
11:20AM 46.2810 -66.2290 48° Northeast 487 560 33,000  Level FlightAware
11:20AM 46.3450 -66.1260 48° Northeast 487 560 33,000  Level FlightAware
11:21AM 46.3830 -66.0640 48° Northeast 487 560 33,000  Level FlightAware
11:21AM 46.4220 -66.0020 48° Northeast 487 560 33,000  Level FlightAware
11:22AM 46.4730 -65.9200 48° Northeast 487 560 33,000  Level FlightAware
11:23AM 46.5240 -65.8370 48° Northeast 487 560 33,000  Level FlightAware
11:23AM 46.5750 -65.7540 48° Northeast 487 560 33,000  Level FlightAware
11:24AM 46.6270 -65.6710 48° Northeast 487 560 33,000  Level FlightAware
11:25AM 46.6650 -65.6090 48° Northeast 487 560 33,000  Level FlightAware
11:25AM 46.7290 -65.5050 48° Northeast 487 560 33,000  Level FlightAware
11:26AM 46.7930 -65.4010 48° Northeast 487 560 33,000  Level FlightAware
11:27AM 46.8320 -65.3390 47° Northeast 487 560 33,000  Level FlightAware
11:28AM 46.8960 -65.2350 48° Northeast 487 560 33,000  Level FlightAware
11:28AM 46.9340 -65.1720 49° Northeast 487 560 33,000  Level FlightAware
11:29AM 46.9980 -65.0680 48° Northeast 487 560 33,000  Level FlightAware
11:30AM 47.1833 -64.6667 48° Northeast 500 575 33,000  Level Moncton Center
11:31AM 47.2833 -64.5000 48° Northeast 500 575 33,000  Level Moncton Center
11:32AM 47.3667 -64.3500 51° Northeast 500 575 33,000  Level Moncton Center
11:33AM 47.4500 -64.2000 51° Northeast 500 575 33,000  Level Moncton Center
11:34AM 47.5333 -64.0333 53° Northeast 500 575 33,000  Level Moncton Center
11:35AM 47.6333 -63.8833 45° Northeast 500 575 33,000  Level Moncton Center
11:36AM 47.7167 -63.7000 56° Northeast 500 575 33,000  Level Moncton Center
11:37AM 47.8000 -63.5500 50° Northeast 500 575 33,000  Level Moncton Center
11:38AM 47.9000 -63.3667 51° Northeast 500 575 33,000  Level Moncton Center
11:39AM 47.9833 -63.2167 50° Northeast 500 575 33,000  Level Moncton Center
11:40AM 48.0833 -63.0667 45° Northeast 500 575 33,000  Level Moncton Center
11:41AM 48.1667 -62.9167 50° Northeast 500 575 33,000  Level Moncton Center
11:41AM 48.1667 -62.8667 90° East 500 575 33,000  Level Gander Center
11:42AM 48.2333 -62.7333 53° Northeast 490 564 33,000  Level Moncton Center
11:43AM 48.3167 -62.5833 50° Northeast 490 564 33,000  Level Moncton Center
11:44AM 48.4000 -62.4333 50° Northeast 500 575 33,000  Level Moncton Center
11:44AM 48.4333 -62.3667 53° Northeast 490 564 33,000  Level Gander Center
11:45AM 48.5000 -62.2500 49° Northeast 490 564 33,000  Level Moncton Center
11:46AM 48.5833 -62.1000 50° Northeast 490 564 33,000  Level Moncton Center
11:46AM 48.6000 -62.0333 69° East 490 564 33,000  Level Gander Center
11:47AM 48.6667 -61.9333 45° Northeast 490 564 33,000  Level Moncton Center
11:48AM 48.7333 -61.7500 61° Northeast 500 575 33,000  Level Moncton Center
11:48AM 48.7667 -61.7167 33° Northeast 500 575 33,000  Level Gander Center
11:49AM 48.8000 -61.5833 69° East 490 564 33,000  Level Moncton Center
11:50AM 48.8667 -61.4000 61° Northeast 500 575 33,000  Level Moncton Center
11:51AM 48.9500 -61.1833 60° Northeast 500 575 33,000  Level Moncton Center
11:52AM 49.0000 -61.0000 67° East 500 575 33,000  Level Moncton Center
11:53AM 49.0667 -60.8167 61° Northeast 500 575 33,000  Level Moncton Center
11:53AM 49.0833 -60.7667 63° Northeast 500 575 33,000  Level Gander Center
11:54AM 49.1333 -60.6333 60° Northeast 500 575 33,000  Level Moncton Center
11:54AM 49.1500 -60.5667 69° East 510 587 33,000  Level Gander Center
11:55AM 49.2167 -60.3833 61° Northeast 500 575 33,000  Level Gander Center
11:56AM 49.2500 -60.2333 71° East 510 587 33,000  Level Moncton Center
11:57AM 49.3167 -60.0500 61° Northeast 510 587 33,000  Level Moncton Center
12:02PM 49.6590 -59.0290 61° Northeast 515 593 33,000  Level FlightAware
12:03PM 49.6940 -58.9180 64° Northeast 516 594 33,000  Level FlightAware
12:03PM 49.7320 -58.7940 65° Northeast 516 594 33,000  Level FlightAware
12:04PM 49.7680 -58.6810 64° Northeast 516 594 33,000  Level FlightAware
12:04PM 49.7950 -58.5970 64° Northeast 516 594 33,000  Level FlightAware
12:06PM 49.9110 -58.2040 65° Northeast 518 596 33,000  Level FlightAware
12:07PM 49.9580 -58.0460 65° Northeast 519 597 33,000  Level FlightAware
12:08PM 50.0060 -57.8870 65° Northeast 520 598 33,000  Level FlightAware
12:08PM 50.0490 -57.7410 65° Northeast 521 600 33,000  Level FlightAware
12:09PM 50.0950 -57.5840 65° Northeast 521 600 33,000  Level FlightAware
12:10PM 50.1250 -57.4790 66° East 523 602 33,000  Level FlightAware
12:11PM 50.1750 -57.3100 65° Northeast 526 605 33,000  Level FlightAware
12:11PM 50.2200 -57.1520 66° East 526 605 33,000  Level FlightAware
12:12PM 50.2540 -57.0320 66° East 529 609 33,000 660 Level FlightAware
12:13PM 50.3080 -56.8430 66° East 529 609 34,000 1,200 Climbing FlightAware
12:13PM 50.3390 -56.7350 66° East 524 603 34,700 660 Climbing FlightAware
12:14PM 50.3960 -56.5320 66° East 523 602 35,000 180 Climbing FlightAware
12:15PM 50.4310 -56.4070 66° East 522 601 35,000  Level FlightAware
12:16PM 50.4740 -56.2520 66° East 520 598 35,000  Level FlightAware
12:16PM 50.5160 -56.0990 67° East 517 595 35,000  Level FlightAware
12:17PM 50.5510 -55.9710 67° East 517 595 35,000  Level FlightAware
12:18PM 50.6020 -55.7850 67° East 519 597 35,000  Level FlightAware
12:18PM 50.6350 -55.6610 67° East 521 600 35,000  Level FlightAware
12:19PM 50.6800 -55.4950 67° East 523 602 35,000  Level FlightAware
12:20PM 50.7290 -55.3120 67° East 524 603 35,000  Level FlightAware
12:21PM 50.7540 -55.2160 68° East 525 604 35,000  Level FlightAware
12:21PM 50.7880 -55.0880 67° East 525 604 35,000  Level FlightAware
12:22PM 50.8300 -54.9250 68° East 523 602 35,000  Level FlightAware
12:23PM 50.8610 -54.8120 66° East 523 602 35,000  Level FlightAware
12:23PM 50.8930 -54.6910 67° East 523 602 35,000  Level FlightAware
12:24PM 50.9170 -54.6010 67° East 523 602 35,000  Level FlightAware
12:25PM 50.9570 -54.4510 67° East 523 602 35,000  Level FlightAware
12:25PM 50.9890 -54.3310 67° East 523 602 35,000  Level FlightAware
12:28PM 51.1670 -53.5980 69° East 533 613 35,000  Level FlightAware
12:29PM 51.1970 -53.4770 68° East 533 613 35,000  Level FlightAware
12:29PM 51.2210 -53.3840 68° East 533 613 35,000  Level FlightAware
12:30PM 51.2520 -53.2600 68° East 533 613 35,000  Level FlightAware
12:31PM 51.2840 -53.1360 68° East 533 613 35,000  Level FlightAware
12:31PM 51.3070 -53.0430 68° East 533 613 35,000  Level FlightAware
12:32PM 51.3310 -52.9490 68° East 533 613 35,000  Level FlightAware
12:33PM 51.3780 -52.7630 68° East 533 613 35,000  Level FlightAware
12:33PM 51.4010 -52.6690 69° East 533 613 35,000  Level FlightAware
12:34PM 51.4330 -52.5450 67° East 533 613 35,000  Level FlightAware
12:34PM 51.4560 -52.4510 69° East 533 613 35,000  Level FlightAware
12:35PM 51.4880 -52.3260 68° East 533 613 35,000  Level FlightAware
12:36PM 51.5190 -52.2010 68° East 533 613 35,000  Level FlightAware
12:36PM 51.5430 -52.1080 67° East 533 613 35,000  Level FlightAware
12:37PM 51.5820 -51.9510 68° East 533 613 35,000  Level FlightAware
12:37PM 51.6050 -51.8570 68° East 533 613 35,000  Level FlightAware
12:38PM 51.6290 -51.7630 68° East 533 613 35,000  Level FlightAware
12:39PM 51.7000 -51.1333 68° East 540 621 35,000  Level Gander Center
12:40PM 51.7500 -50.9167 69° East 540 621 35,000  Level Gander Center
12:41PM 51.8167 -50.6833 65° Northeast 540 621 35,000  Level Gander Center
12:42PM 51.8667 -50.4500 71° East 540 621 35,000  Level Gander Center
12:44PM 51.9581 -50.1423 64° Northeast  Level FlightAware Approximate
12:51PM 52.1904 -48.6071 77° East  Level FlightAware Approximate
12:52PM 52.2191 -48.3853 78° East  Level FlightAware Approximate
12:53PM 52.2473 -48.1632 78° East  Level FlightAware Approximate
12:54PM 52.2752 -47.9409 78° East  Level FlightAware Approximate
12:55PM 52.3026 -47.7183 79° East  Level FlightAware Approximate
12:56PM 52.3296 -47.4953 79° East  Level FlightAware Approximate
12:57PM 52.3562 -47.2722 79° East  Level FlightAware Approximate
12:58PM 52.3823 -47.0487 79° East  Level FlightAware Approximate
12:59PM 52.4080 -46.8250 79° East  Level FlightAware Approximate
01:00PM 52.4333 -46.6011 79° East  Level FlightAware Approximate
01:01PM 52.4582 -46.3769 80° East  Level FlightAware Approximate
01:02PM 52.4830 -46.1525 80° East  Level FlightAware Approximate
01:03PM 52.5074 -45.9279 80° East  Level FlightAware Approximate
01:04PM 52.5314 -45.7031 80° East  Level FlightAware Approximate
01:05PM 52.5550 -45.4780 80° East  Level FlightAware Approximate
01:06PM 52.5782 -45.2526 80° East  Level FlightAware Approximate
01:07PM 52.6009 -45.0271 80° East  Level FlightAware Approximate
01:08PM 52.6232 -44.8013 81° East  Level FlightAware Approximate
01:09PM 52.6451 -44.5753 81° East  Level FlightAware Approximate
01:10PM 52.6665 -44.3490 81° East  Level FlightAware Approximate
01:11PM 52.6875 -44.1225 81° East  Level FlightAware Approximate
01:12PM 52.7081 -43.8959 81° East  Level FlightAware Approximate
01:13PM 52.7285 -43.6690 81° East  Level FlightAware Approximate
01:14PM 52.7487 -43.4420 82° East  Level FlightAware Approximate
01:15PM 52.7685 -43.2148 82° East  Level FlightAware Approximate
01:16PM 52.7878 -42.9874 82° East  Level FlightAware Approximate
01:17PM 52.8067 -42.7598 82° East  Level FlightAware Approximate
01:18PM 52.8251 -42.5320 82° East  Level FlightAware Approximate
01:19PM 52.8431 -42.3040 82° East  Level FlightAware Approximate
01:20PM 52.8607 -42.0759 83° East  Level FlightAware Approximate
01:21PM 52.8779 -41.8475 83° East  Level FlightAware Approximate
01:22PM 52.8946 -41.6190 83° East  Level FlightAware Approximate
01:23PM 52.9108 -41.3903 83° East  Level FlightAware Approximate
01:24PM 52.9266 -41.1614 83° East  Level FlightAware Approximate
01:25PM 52.9420 -40.9323 84° East  Level FlightAware Approximate
01:26PM 52.9570 -40.7031 84° East  Level FlightAware Approximate
01:27PM 52.9715 -40.4738 84° East  Level FlightAware Approximate
01:28PM 52.9855 -40.2442 84° East  Level FlightAware Approximate
01:29PM 52.9991 -40.0146 84° East  Level FlightAware Approximate
01:30PM 53.0087 -39.7843 86° East  Level FlightAware Approximate
01:31PM 53.0175 -39.5539 86° East  Level FlightAware Approximate
01:32PM 53.0258 -39.3234 86° East  Level FlightAware Approximate
01:33PM 53.0338 -39.0928 87° East  Level FlightAware Approximate
01:34PM 53.0412 -38.8621 87° East  Level FlightAware Approximate
01:35PM 53.0483 -38.6313 87° East  Level FlightAware Approximate
01:36PM 53.0549 -38.4005 87° East  Level FlightAware Approximate
01:37PM 53.0610 -38.1696 87° East  Level FlightAware Approximate
01:38PM 53.0667 -37.9386 88° East  Level FlightAware Approximate
01:39PM 53.0719 -37.7076 88° East  Level FlightAware Approximate
01:40PM 53.0767 -37.4765 88° East  Level FlightAware Approximate
01:41PM 53.0811 -37.2454 88° East  Level FlightAware Approximate
01:42PM 53.0850 -37.0143 88° East  Level FlightAware Approximate
01:43PM 53.0884 -36.7830 88° East  Level FlightAware Approximate
01:44PM 53.0914 -36.5518 89° East  Level FlightAware Approximate
01:45PM 53.0940 -36.3205 89° East  Level FlightAware Approximate
01:46PM 53.0961 -36.0892 89° East  Level FlightAware Approximate
01:47PM 53.0978 -35.8579 89° East  Level FlightAware Approximate
01:48PM 53.0990 -35.6266 89° East  Level FlightAware Approximate
01:49PM 53.0997 -35.3952 90° East  Level FlightAware Approximate
01:50PM 53.1001 -35.1639 90° East  Level FlightAware Approximate
01:51PM 53.1001 -34.9325 90° East  Level FlightAware Approximate
01:52PM 53.0999 -34.7012 90° East  Level FlightAware Approximate
01:53PM 53.0993 -34.4698 90° East  Level FlightAware Approximate
01:54PM 53.0983 -34.2385 90° East  Level FlightAware Approximate
01:55PM 53.0969 -34.0072 91° East  Level FlightAware Approximate
01:56PM 53.0949 -33.7759 91° East  Level FlightAware Approximate
01:57PM 53.0926 -33.5446 91° East  Level FlightAware Approximate
01:58PM 53.0897 -33.3133 91° East  Level FlightAware Approximate
01:59PM 53.0865 -33.0821 91° East  Level FlightAware Approximate
02:00PM 53.0828 -32.8509 91° East  Level FlightAware Approximate
02:01PM 53.0786 -32.6198 92° East  Level FlightAware Approximate
02:02PM 53.0740 -32.3887 92° East  Level FlightAware Approximate
02:03PM 53.0689 -32.1576 92° East  Level FlightAware Approximate
02:04PM 53.0634 -31.9266 92° East  Level FlightAware Approximate
02:05PM 53.0575 -31.6957 92° East  Level FlightAware Approximate
02:06PM 53.0511 -31.4648 93° East  Level FlightAware Approximate
02:07PM 53.0442 -31.2341 93° East  Level FlightAware Approximate
02:08PM 53.0369 -31.0033 93° East  Level FlightAware Approximate
02:09PM 53.0292 -30.7727 93° East  Level FlightAware Approximate
02:10PM 53.0210 -30.5422 93° East  Level FlightAware Approximate
02:11PM 53.0124 -30.3117 93° East  Level FlightAware Approximate
02:12PM 53.0033 -30.0814 94° East  Level FlightAware Approximate
02:13PM 53.0210 -29.8548 76° East  Level FlightAware Approximate
02:14PM 53.0530 -29.6300 77° East  Level FlightAware Approximate
02:15PM 53.0846 -29.4049 77° East  Level FlightAware Approximate
02:16PM 53.1158 -29.1795 77° East  Level FlightAware Approximate
02:17PM 53.1466 -28.9537 77° East  Level FlightAware Approximate
02:18PM 53.1769 -28.7276 77° East  Level FlightAware Approximate
02:19PM 53.2068 -28.5012 77° East  Level FlightAware Approximate
02:20PM 53.2363 -28.2745 78° East  Level FlightAware Approximate
02:21PM 53.2654 -28.0474 78° East  Level FlightAware Approximate
02:22PM 53.2940 -27.8201 78° East  Level FlightAware Approximate
02:23PM 53.3222 -27.5925 78° East  Level FlightAware Approximate
02:24PM 53.3499 -27.3645 78° East  Level FlightAware Approximate
02:25PM 53.3772 -27.1363 79° East  Level FlightAware Approximate
02:26PM 53.4041 -26.9078 79° East  Level FlightAware Approximate
02:27PM 53.4305 -26.6790 79° East  Level FlightAware Approximate
02:28PM 53.4566 -26.4499 79° East  Level FlightAware Approximate
02:29PM 53.4821 -26.2205 79° East  Level FlightAware Approximate
02:30PM 53.5073 -25.9909 79° East  Level FlightAware Approximate
02:31PM 53.5319 -25.7609 80° East  Level FlightAware Approximate
02:32PM 53.5562 -25.5308 80° East  Level FlightAware Approximate
02:33PM 53.5800 -25.3003 80° East  Level FlightAware Approximate
02:34PM 53.6033 -25.0696 80° East  Level FlightAware Approximate
02:35PM 53.6263 -24.8387 80° East  Level FlightAware Approximate
02:36PM 53.6487 -24.6075 81° East  Level FlightAware Approximate
02:37PM 53.6707 -24.3760 81° East  Level FlightAware Approximate
02:38PM 53.6923 -24.1443 81° East  Level FlightAware Approximate
02:39PM 53.7135 -23.9124 81° East  Level FlightAware Approximate
02:40PM 53.7341 -23.6803 81° East  Level FlightAware Approximate
02:41PM 53.7544 -23.4479 82° East  Level FlightAware Approximate
02:42PM 53.7741 -23.2153 82° East  Level FlightAware Approximate
02:43PM 53.7935 -22.9825 82° East  Level FlightAware Approximate
02:44PM 53.8124 -22.7494 82° East  Level FlightAware Approximate
02:45PM 53.8308 -22.5162 82° East  Level FlightAware Approximate
02:46PM 53.8488 -22.2827 82° East  Level FlightAware Approximate
02:47PM 53.8663 -22.0491 83° East  Level FlightAware Approximate
02:48PM 53.8834 -21.8153 83° East  Level FlightAware Approximate
02:49PM 53.9000 -21.5813 83° East  Level FlightAware Approximate
02:50PM 53.9161 -21.3471 83° East  Level FlightAware Approximate
02:51PM 53.9318 -21.1127 83° East  Level FlightAware Approximate
02:52PM 53.9471 -20.8781 84° East  Level FlightAware Approximate
02:53PM 53.9619 -20.6434 84° East  Level FlightAware Approximate
02:54PM 53.9762 -20.4085 84° East  Level FlightAware Approximate
02:55PM 53.9901 -20.1735 84° East  Level FlightAware Approximate
02:56PM 53.9964 -19.9383 96° East  Level FlightAware Approximate
02:57PM 53.9822 -19.7033 96° East  Level FlightAware Approximate
02:58PM 53.9677 -19.4684 96° East  Level FlightAware Approximate
02:59PM 53.9526 -19.2337 96° East  Level FlightAware Approximate
03:00PM 53.9371 -18.9991 96° East  Level FlightAware Approximate
03:01PM 53.9212 -18.7648 97° East  Level FlightAware Approximate
03:02PM 53.9048 -18.5306 97° East  Level FlightAware Approximate
03:03PM 53.8879 -18.2966 97° East  Level FlightAware Approximate
03:04PM 53.8706 -18.0628 97° East  Level FlightAware Approximate
03:05PM 53.8528 -17.8292 97° East  Level FlightAware Approximate
03:06PM 53.8346 -17.5958 97° East  Level FlightAware Approximate
03:07PM 53.8159 -17.3626 98° East  Level FlightAware Approximate
03:08PM 53.7968 -17.1296 98° East  Level FlightAware Approximate
03:08PM 53.8910 -14.3630 98° East 505 581 36,000  Level FlightAware
03:08PM 53.8600 -14.1710 105° East 503 579 36,000 120 Level FlightAware
03:09PM 53.8410 -14.0550 105° East 503 579 36,200 780 Climbing FlightAware
03:09PM 53.8200 -13.9220 105° East 502 578 36,900 600 Climbing FlightAware
03:10PM 53.7920 -13.7510 105° East 503 579 37,000 60 Climbing FlightAware
03:11PM 53.7680 -13.6050 105° East 503 579 37,000  Level FlightAware
03:12PM 53.7370 -13.4140 105° East 501 577 37,000  Level FlightAware
03:12PM 53.7120 -13.2620 105° East 500 575 37,000  Level FlightAware
03:13PM 53.6900 -13.1310 106° East 500 575 37,000  Level FlightAware
03:14PM 53.6680 -13.0010 106° East 501 577 37,000  Level FlightAware
03:14PM 53.6420 -12.8470 106° East 499 574 37,000  Level FlightAware
03:15PM 53.6130 -12.6830 107° East 497 572 37,000  Level FlightAware
03:16PM 53.5870 -12.5330 106° East 497 572 37,000  Level FlightAware
03:16PM 53.5580 -12.3670 106° East 498 573 37,000  Level FlightAware
03:17PM 53.5320 -12.2160 106° East 498 573 37,000  Level FlightAware
03:18PM 53.5020 -12.0460 106° East 500 575 37,000  Level FlightAware
03:18PM 53.4760 -11.9020 107° East 499 574 37,000  Level FlightAware
03:19PM 53.4500 -11.7610 107° East 497 572 37,000  Level FlightAware
03:20PM 53.4030 -11.5040 107° East 496 571 37,000  Level FlightAware
03:21PM 53.3700 -11.3230 107° East 497 572 37,000  Level FlightAware
03:22PM 53.3390 -11.1590 108° East 496 571 37,000  Level FlightAware
03:23PM 53.3080 -10.9940 107° East 495 570 37,000  Level FlightAware
03:23PM 53.2790 -10.8440 108° East 494 568 37,000  Level FlightAware
03:24PM 53.2480 -10.6790 107° East 492 566 37,000  Level FlightAware
03:25PM 53.2190 -10.5330 108° East 493 567 37,000  Level FlightAware
03:25PM 53.1880 -10.3710 108° East 493 567 37,000  Level FlightAware
03:26PM 53.1590 -10.2240 108° East 494 568 37,000  Level FlightAware
03:27PM 53.1340 -10.0990 108° East 493 567 37,000  Level FlightAware
03:27PM 53.1010 -9.9340 108° East 491 565 37,000  Level FlightAware
03:28PM 53.0720 -9.7890 108° East 492 566 37,000  Level FlightAware
03:29PM 53.0410 -9.6340 108° East 491 565 37,000  Level FlightAware
03:30PM 53.0120 -9.4920 109° East 493 567 37,000  Level FlightAware
03:30PM 52.9830 -9.3500 109° East 492 566 37,000  Level FlightAware
03:31PM 52.9480 -9.1850 109° East 491 565 37,000  Level FlightAware
03:32PM 52.9190 -9.0440 109° East 491 565 37,000 -1,740 Level FlightAware
03:32PM 52.9037 -8.9703 109° East 488 562 35,400 -2,580 Descending FlightAware UK
03:32PM 52.8903 -8.9065 109° East 486 559 35,500 3,420 Climbing FlightAware UK
03:32PM 52.8860 -8.8850 109° East 490 564 37,000  Climbing FlightAware
03:33PM 52.8680 -8.8006 109° East 484 557 35,500 -2,580 Descending FlightAware UK
03:33PM 52.8544 -8.7370 109° East 484 557 35,400 4,500 Descending FlightAware UK
03:33PM 52.8540 -8.7360 109° East 489 563 37,000  Climbing FlightAware
03:33PM 52.8410 -8.6736 109° East 482 555 35,400 -2,700 Descending FlightAware UK
03:34PM 52.8275 -8.6102 109° East 484 557 35,500 3,960 Climbing FlightAware UK
03:34PM 52.8260 -8.6030 109° East 490 564 37,000  Climbing FlightAware
03:34PM 52.8093 -8.5258 109° East 488 562 35,500 -2,700 Descending FlightAware UK
03:34PM 52.7955 -8.4624 110° East 488 562 35,400 3,300 Descending FlightAware UK
03:34PM 52.7910 -8.4400 110° East 490 564 37,000  Climbing FlightAware
03:35PM 52.7775 -8.3776 110° East 488 562 35,400 -2,760 Descending FlightAware UK
03:35PM 52.7636 -8.3135 110° East 488 562 35,500 3,840 Climbing FlightAware UK
03:35PM 52.7610 -8.3040 110° East 488 562 37,000  Climbing FlightAware
03:35PM 52.7452 -8.2293 110° East 486 559 35,500 -2,580 Descending FlightAware UK
03:36PM 52.7315 -8.1662 110° East 488 562 35,500 3,180 Level FlightAware UK
03:36PM 52.7270 -8.1460 110° East 486 559 37,000  Climbing FlightAware
03:36PM 52.7087 -8.0617 110° East 490 564 35,500 -2,400 Descending FlightAware UK
03:37PM 52.6948 -7.9994 110° East 488 562 35,500 4,500 Level FlightAware UK
03:37PM 52.6970 -8.0080 110° East 484 557 37,000  Climbing FlightAware
03:37PM 52.6811 -7.9375 110° East 484 557 35,500 -2,700 Descending FlightAware UK
03:37PM 52.6673 -7.8757 110° East 484 557 35,500 3,720 Level FlightAware UK
03:37PM 52.6660 -7.8710 110° East 482 555 37,000  Climbing FlightAware
03:38PM 52.6491 -7.7934 110° East 484 557 35,500 -2,520 Descending FlightAware UK
03:38PM 52.6354 -7.7317 110° East 484 557 35,500 3,300 Level FlightAware UK
03:38PM 52.6320 -7.7170 110° East 481 554 37,000  Climbing FlightAware
03:38PM 52.6171 -7.6495 110° East 482 555 35,500 -2,760 Descending FlightAware UK
03:39PM 52.6034 -7.5880 110° East 484 557 35,500 3,600 Level FlightAware UK
03:39PM 52.6010 -7.5800 110° East 479 551 37,000  Climbing FlightAware
03:39PM 52.5847 -7.5059 110° East 484 557 35,500 -2,580 Descending FlightAware UK
03:39PM 52.5707 -7.4444 110° East 482 555 35,500 3,180 Level FlightAware UK
03:39PM 52.5660 -7.4220 110° East 478 550 37,000 -240 Climbing FlightAware
03:40PM 52.5475 -7.3417 110° East 480 552 35,400 -2,400 Descending FlightAware UK
03:40PM 52.5336 -7.2803 110° East 482 555 35,500 4,800 Climbing FlightAware UK
03:40PM 52.5350 -7.2890 110° East 477 549 37,000  Climbing FlightAware
03:40PM 52.5195 -7.2189 110° East 482 555 35,500 -2,880 Descending FlightAware UK
03:41PM 52.5054 -7.1569 110° East 480 552 35,400 3,060 Descending FlightAware UK
03:41PM 52.5000 -7.1350 110° East 477 549 37,000 180 Climbing FlightAware
03:41PM 52.4823 -7.0549 110° East 478 550 35,500 -2,460 Descending FlightAware UK
03:41PM 52.4681 -6.9940 111° Southeast 480 552 35,500 4,260 Level FlightAware UK
03:41PM 52.4690 -6.9980 111° Southeast 478 550 37,000  Climbing FlightAware
03:42PM 52.4538 -6.9331 111° Southeast 488 562 35,500 -2,760 Descending FlightAware UK
03:42PM 52.4396 -6.8721 111° Southeast 488 562 35,500 3,600 Level FlightAware UK
03:42PM 52.4380 -6.8650 111° Southeast 475 547 37,000  Climbing FlightAware
03:42PM 52.4206 -6.7909 111° Southeast 484 557 35,500 -2,580 Descending FlightAware UK
03:43PM 52.4064 -6.7304 111° Southeast 482 555 35,500 3,900 Level FlightAware UK
03:43PM 52.4060 -6.7300 111° Southeast 473 544 37,000  Climbing FlightAware
03:43PM 52.3875 -6.6497 111° Southeast 484 557 35,500 -2,460 Descending FlightAware UK
03:43PM 52.3734 -6.5893 111° Southeast 486 559 35,500 3,420 Level FlightAware UK
03:44PM 52.3690 -6.5730 111° Southeast 474 545 37,000  Climbing FlightAware
03:44PM 52.3544 -6.5088 111° Southeast 486 559 35,500 -2,700 Descending FlightAware UK
03:44PM 52.3401 -6.4486 111° Southeast 484 557 35,500 3,060 Level FlightAware UK
03:44PM 52.3340 -6.4230 111° Southeast 471 542 37,000 -240 Climbing FlightAware
03:45PM 52.3163 -6.3486 111° Southeast 484 557 35,400 -2,460 Descending FlightAware UK
03:45PM 52.3021 -6.2889 111° Southeast 482 555 35,500 4,560 Climbing FlightAware UK
03:45PM 52.3020 -6.2910 111° Southeast 468 539 37,000  Climbing FlightAware
03:45PM 52.2878 -6.2295 111° Southeast 480 552 35,500 -2,760 Descending FlightAware UK
03:46PM 52.2735 -6.1702 111° Southeast 480 552 35,500  Level FlightAware UK
03:46PM 52.2593 -6.1110 111° Southeast 476 548 35,500 4,080 Level FlightAware UK
03:46PM 52.2580 -6.1030 111° Southeast 472 543 37,000 -300 Climbing FlightAware
03:46PM 52.2427 -6.0303 111° Southeast 474 545 35,400 -2,580 Descending FlightAware UK
03:47PM 52.2309 -5.9680 107° East 474 545 35,400 3,840 Level FlightAware UK
03:47PM 52.2290 -5.9560 107° East 477 549 37,000  Climbing FlightAware
03:47PM 52.2164 -5.8852 107° East 478 550 35,400 -2,760 Descending FlightAware UK
03:47PM 52.2057 -5.8228 106° East 478 550 35,400 4,140 Level FlightAware UK
03:47PM 52.2050 -5.8170 106° East 479 551 37,000  Climbing FlightAware
03:48PM 52.1918 -5.7393 106° East 480 552 35,400 -2,460 Descending FlightAware UK
03:48PM 52.1815 -5.6767 105° East 480 552 35,500 4,560 Climbing FlightAware UK
03:48PM 52.1810 -5.6760 105° East 480 552 37,000 -360 Climbing FlightAware
03:48PM 52.1710 -5.6140 105° East 478 550 35,400 -2,940 Descending FlightAware UK
03:49PM 52.1595 -5.5520 107° East 478 550 35,400 3,180 Level FlightAware UK
03:49PM 52.1520 -5.5190 107° East 478 550 37,000  Climbing FlightAware
03:49PM 52.1387 -5.4498 107° East 480 552 35,400 -2,520 Descending FlightAware UK
03:49PM 52.1261 -5.3887 109° East 480 552 35,500 3,540 Climbing FlightAware UK
03:49PM 52.1210 -5.3670 109° East 477 549 37,000 -300 Climbing FlightAware
03:50PM 52.1086 -5.3076 109° East 480 552 35,400 -2,940 Descending FlightAware UK
03:50PM 52.0954 -5.2472 110° East 480 552 35,400 3,840 Level FlightAware UK
03:50PM 52.0920 -5.2340 110° East 475 547 37,000 240 Climbing FlightAware
03:50PM 52.0775 -5.1666 110° East 484 557 35,500 -2,580 Descending FlightAware UK
03:51PM 52.0639 -5.1064 110° East 482 555 35,500 3,900 Level FlightAware UK
03:51PM 52.0620 -5.0990 110° East 474 545 37,000 -300 Climbing FlightAware
03:51PM 52.0461 -5.0261 110° East 478 550 35,400 -2,640 Descending FlightAware UK
03:51PM 52.0327 -4.9661 110° East 480 552 35,400 4,560 Level FlightAware UK
03:51PM 52.0320 -4.9620 110° East 474 545 37,000 300 Climbing FlightAware
03:52PM 52.0191 -4.9054 110° East 480 552 35,500  Descending FlightAware UK
03:52PM 52.0121 -4.8748 110° East 475 547 37,000  Climbing FlightAware ADS-B
03:52PM 51.9965 -4.8056 110° East 482 555 35,500 -2,580 Descending FlightAware UK
03:53PM 51.9831 -4.7457 110° East 480 552 35,400  Descending FlightAware UK
03:53PM 51.9697 -4.6860 110° East 480 552 35,500 4,320 Climbing FlightAware UK
03:53PM 51.9690 -4.6810 110° East 472 543 37,000 -300 Climbing FlightAware
03:53PM 51.9518 -4.6064 110° East 480 552 35,400 -2,580 Descending FlightAware UK
03:54PM 51.9384 -4.5469 110° East 478 550 35,400 3,840 Level FlightAware UK
03:54PM 51.9360 -4.5350 110° East 470 541 37,000  Climbing FlightAware
03:54PM 51.9204 -4.4670 110° East 478 550 35,400 -2,520 Descending FlightAware UK
03:54PM 51.9069 -4.4077 110° East 480 552 35,500 4,320 Climbing FlightAware UK
03:54PM 51.9060 -4.4020 110° East 470 541 37,000 -300 Climbing FlightAware
03:55PM 51.8889 -4.3293 110° East 478 550 35,400 -2,580 Descending FlightAware UK
03:55PM 51.8753 -4.2694 110° East 478 550 35,400 4,560 Level FlightAware UK
03:55PM 51.8750 -4.2700 110° East 470 541 37,000 5,640 Climbing FlightAware
03:55PM 51.8622 -4.2130 110° East 471 542 37,000 -2,700 Level FlightAware ADS-B
03:56PM 51.8481 -4.1512 110° East 478 550 35,500  Descending FlightAware UK
03:56PM 51.8369 -4.1030 110° East 471 542 37,000  Climbing FlightAware ADS-B
03:56PM 51.8253 -4.0528 110° East 478 550 35,500  Descending FlightAware UK
03:56PM 51.8139 -4.0034 110° East 471 542 37,000  Climbing FlightAware ADS-B
03:57PM 51.8026 -3.9543 110° East 476 548 35,500 -2,760 Descending FlightAware UK
03:57PM 51.7886 -3.8945 111° Southeast 476 548 35,500 2,460 Level FlightAware UK
03:57PM 51.7760 -3.8430 111° Southeast 472 543 37,000 2,340 Climbing FlightAware
03:57PM 51.7593 -3.7696 110° East 473 544 37,000 -2,520 Level FlightAware ADS-B
03:58PM 51.7470 -3.7169 110° East 480 552 35,500  Descending FlightAware UK
03:58PM 51.7323 -3.6548 110° East 474 545 37,000  Climbing FlightAware ADS-B
03:58PM 51.7143 -3.5787 110° East 480 552 35,500  Descending FlightAware UK
03:59PM 51.7080 -3.5519 110° East 473 544 37,000 -240 Climbing FlightAware ADS-B
03:59PM 51.6911 -3.4800 110° East 480 552 35,400  Descending FlightAware UK
03:59PM 51.6834 -3.4484 110° East 474 545 37,000 2,400 Climbing FlightAware ADS-B
04:00PM 51.6594 -3.3480 111° Southeast 472 543 37,000 -1,920 Level FlightAware ADS-B
04:00PM 51.6438 -3.2825 111° Southeast 480 552 35,400  Descending FlightAware UK
04:00PM 51.6355 -3.2480 111° Southeast 473 544 37,000  Climbing FlightAware ADS-B
04:00PM 51.6200 -3.1843 111° Southeast 480 552 35,400  Descending FlightAware UK
04:01PM 51.6130 -3.1540 111° Southeast 473 544 37,000 6,000 Climbing FlightAware
04:01PM 51.6079 -3.1342 112° Southeast 474 545 37,000 -4,020 Level FlightAware ADS-B
04:01PM 51.5914 -3.0658 112° Southeast 480 552 35,400  Descending FlightAware UK
04:01PM 51.5840 -3.0353 112° Southeast 474 545 37,000  Climbing FlightAware ADS-B
04:02PM 51.5677 -2.9676 112° Southeast 480 552 35,400  Descending FlightAware UK
04:02PM 51.5588 -2.9317 112° Southeast 474 545 37,000 180 Climbing FlightAware ADS-B
04:02PM 51.5437 -2.8696 112° Southeast 480 552 35,500  Descending FlightAware UK
04:02PM 51.5348 -2.8333 112° Southeast 475 547 37,000  Climbing FlightAware ADS-B
04:03PM 51.5195 -2.7710 112° Southeast 480 552 35,500  Descending FlightAware UK
04:03PM 51.5101 -2.7326 112° Southeast 474 545 37,000  Climbing FlightAware ADS-B
04:03PM 51.4955 -2.6736 112° Southeast 480 552 35,500  Descending FlightAware UK
04:03PM 51.4853 -2.6328 112° Southeast 474 545 37,000 -240 Climbing FlightAware ADS-B
04:04PM 51.4711 -2.5744 112° Southeast 482 555 35,400  Descending FlightAware UK
04:04PM 51.4588 -2.5259 112° Southeast 475 547 37,000 2,040 Climbing FlightAware ADS-B
04:04PM 51.4328 -2.4211 112° Southeast 474 545 37,000 -1,800 Level FlightAware ADS-B
04:05PM 51.4175 -2.3597 112° Southeast 482 555 35,500  Descending FlightAware UK
04:05PM 51.4081 -2.3221 112° Southeast 473 544 37,000  Climbing FlightAware ADS-B
04:05PM 51.3929 -2.2617 112° Southeast 482 555 35,500  Descending FlightAware UK
04:05PM 51.3832 -2.2233 112° Southeast 473 544 37,000  Climbing FlightAware ADS-B
04:06PM 51.3683 -2.1641 112° Southeast 482 555 35,500  Descending FlightAware UK
04:06PM 51.3583 -2.1247 112° Southeast 473 544 37,000  Climbing FlightAware ADS-B
04:06PM 51.3440 -2.0679 112° Southeast 480 552 35,500  Descending FlightAware UK
04:06PM 51.3332 -2.0257 112° Southeast 472 543 37,000  Climbing FlightAware ADS-B
04:07PM 51.3194 -1.9712 112° Southeast 480 552 35,500  Descending FlightAware UK
04:07PM 51.3081 -1.9271 112° Southeast 472 543 37,000  Climbing FlightAware ADS-B
04:07PM 51.2946 -1.8740 112° Southeast 482 555 35,500  Descending FlightAware UK
04:07PM 51.2812 -1.8219 112° Southeast 472 543 37,000  Climbing FlightAware ADS-B
04:08PM 51.2649 -1.7583 112° Southeast 482 555 35,500  Descending FlightAware UK
04:08PM 51.2561 -1.7239 112° Southeast 471 542 37,000  Climbing FlightAware ADS-B
04:08PM 51.2399 -1.6615 112° Southeast 482 555 35,500  Descending FlightAware UK
04:08PM 51.2310 -1.6272 112° Southeast 471 542 37,000 -240 Climbing FlightAware ADS-B
04:09PM 51.2151 -1.5654 112° Southeast 482 555 35,400  Descending FlightAware UK
04:09PM 51.2057 -1.5295 112° Southeast 471 542 37,000 120 Climbing FlightAware ADS-B
04:09PM 51.1850 -1.4498 112° Southeast 480 552 35,500  Descending FlightAware UK
04:09PM 51.1799 -1.4305 112° Southeast 471 542 37,000  Climbing FlightAware ADS-B
04:10PM 51.1650 -1.3731 112° Southeast 480 552 35,500  Descending FlightAware UK
04:10PM 51.1546 -1.3338 112° Southeast 471 542 37,000  Climbing FlightAware ADS-B
04:10PM 51.1349 -1.2583 112° Southeast 482 555 35,500  Descending FlightAware UK
04:10PM 51.1283 -1.2334 112° Southeast 471 542 37,000  Climbing FlightAware ADS-B
04:11PM 51.1146 -1.1813 112° Southeast 482 555 35,500  Descending FlightAware UK
04:11PM 51.1030 -1.1374 112° Southeast 470 541 37,000  Climbing FlightAware ADS-B
04:11PM 51.0844 -1.0669 112° Southeast 482 555 35,500  Descending FlightAware UK
04:11PM 51.0778 -1.0421 112° Southeast 470 541 37,000  Climbing FlightAware ADS-B
04:12PM 51.0643 -0.9914 112° Southeast 482 555 35,500  Descending FlightAware UK
04:12PM 51.0523 -0.9465 112° Southeast 469 540 37,000  Climbing FlightAware ADS-B
04:12PM 51.0388 -0.8959 112° Southeast 482 555 35,500  Descending FlightAware UK
04:12PM 51.0267 -0.8505 112° Southeast 468 539 37,000  Climbing FlightAware ADS-B
04:13PM 51.0083 -0.7823 112° Southeast 484 557 35,500  Descending FlightAware UK
04:13PM 51.0002 -0.7518 112° Southeast 467 537 37,000  Climbing FlightAware ADS-B
04:13PM 50.9830 -0.6880 112° Southeast 482 555 35,500  Descending FlightAware UK
04:14PM 50.9746 -0.6567 112° Southeast 466 536 37,000  Climbing FlightAware ADS-B
04:14PM 50.9576 -0.5934 112° Southeast 480 552 35,500  Descending FlightAware UK
04:14PM 50.9490 -0.5622 112° Southeast 465 535 37,000  Climbing FlightAware ADS-B
04:14PM 50.9321 -0.4996 112° Southeast 480 552 35,500  Descending FlightAware UK
04:15PM 50.9230 -0.4662 112° Southeast 466 536 37,000 -240 Climbing FlightAware ADS-B
04:15PM 50.9066 -0.4059 112° Southeast 474 545 35,400  Descending FlightAware UK
04:15PM 50.8971 -0.3715 112° Southeast 468 539 37,000 -240 Climbing FlightAware ADS-B
04:15PM 50.8807 -0.3114 112° Southeast 480 552 35,300 -600 Descending FlightAware UK
04:16PM 50.8712 -0.2767 112° Southeast 473 544 36,700 720 Climbing FlightAware ADS-B
04:16PM 50.8526 -0.2127 115° Southeast 480 552 35,700 -2,280 Descending FlightAware ADS-B
04:16PM 50.8360 -0.1674 120° Southeast 479 551 35,400 -1,020 Descending FlightAware ADS-B
04:16PM 50.8161 -0.1220 125° Southeast 476 548 35,200 -900 Descending FlightAware ADS-B
04:17PM 50.7912 -0.0751 130° Southeast 473 544 34,900 -780 Descending FlightAware ADS-B
04:17PM 50.7452 0.0023 133° Southeast 467 537 34,600 -600 Descending FlightAware ADS-B
04:18PM 50.7004 0.0759 134° Southeast 461 531 34,300 -600 Descending FlightAware ADS-B
04:18PM 50.6853 0.1008 134° Southeast 460 529 34,200 -1,200 Descending FlightAware ADS-B
04:18PM 50.6553 0.1498 134° Southeast 457 526 33,700 -1,320 Descending FlightAware ADS-B
04:18PM 50.6375 0.1788 134° Southeast 453 521 33,500 -1,800 Descending FlightAware ADS-B
04:19PM 50.6114 0.2212 134° Southeast 448 516 32,800 -2,220 Descending FlightAware ADS-B
04:19PM 50.5943 0.2491 134° Southeast 447 514 32,400 -2,160 Descending FlightAware ADS-B
04:19PM 50.5676 0.2925 134° Southeast 441 507 31,700 -2,340 Descending FlightAware ADS-B
04:19PM 50.5464 0.3266 134° Southeast 438 504 31,100 -2,220 Descending FlightAware ADS-B
04:20PM 50.5221 0.3661 134° Southeast 434 499 30,500 -2,220 Descending FlightAware ADS-B
04:20PM 50.5043 0.3949 134° Southeast 432 497 30,000 -2,400 Descending FlightAware ADS-B
04:20PM 50.4794 0.4354 134° Southeast 429 494 29,300 -2,160 Descending FlightAware ADS-B
04:21PM 50.4622 0.4634 134° Southeast 426 490 28,900 -2,160 Descending FlightAware ADS-B
04:21PM 50.4381 0.5024 134° Southeast 422 486 28,200 -2,160 Descending FlightAware ADS-B
04:21PM 50.4199 0.5321 134° Southeast 418 481 27,800 -2,040 Descending FlightAware ADS-B
04:21PM 50.3970 0.5690 134° Southeast 414 476 27,200 -2,160 Descending FlightAware ADS-B
04:22PM 50.3795 0.5971 134° Southeast 411 473 26,700 -4,620 Descending FlightAware ADS-B
04:22PM 50.3523 0.6397 134° Southeast 428 493 24,600 -1,380 Descending FlightAware UK
04:22PM 50.3364 0.6609 134° Southeast 411 473 26,000 -360 Climbing FlightAware ADS-B
04:22PM 50.2996 0.7078 134° Southeast 424 488 24,400  Descending FlightAware UK
04:23PM 50.2873 0.7232 134° Southeast 408 470 26,000  Climbing FlightAware ADS-B
04:23PM 50.2646 0.7515 134° Southeast 426 490 24,400  Descending FlightAware UK
04:23PM 50.2470 0.7721 134° Southeast 407 468 26,000  Climbing FlightAware ADS-B
04:23PM 50.2184 0.8017 134° Southeast 426 490 24,400  Descending FlightAware UK
04:24PM 50.2037 0.8168 134° Southeast 407 468 26,000  Climbing FlightAware ADS-B
04:24PM 50.1794 0.8398 134° Southeast 422 486 24,400 -600 Descending FlightAware UK
04:24PM 50.1538 0.8622 134° Southeast 406 467 25,700 -1,200 Climbing FlightAware ADS-B
04:24PM 50.1208 0.8908 134° Southeast 420 483 23,700 -1,500 Descending FlightAware UK
04:25PM 50.1013 0.9064 134° Southeast 403 464 24,900 -1,800 Climbing FlightAware ADS-B
04:25PM 50.0709 0.9317 134° Southeast 420 483 22,800 -1,680 Descending FlightAware UK
04:25PM 50.0600 0.9397 134° Southeast 408 470 24,200 -1,020 Climbing FlightAware ADS-B
04:25PM 50.0312 0.9636 134° Southeast 418 481 22,400 -1,140 Descending FlightAware UK
04:26PM 50.0059 0.9849 134° Southeast 399 459 23,600 -1,500 Climbing FlightAware ADS-B
04:26PM 49.9728 1.0132 134° Southeast 410 472 21,500 -3,960 Descending FlightAware UK
04:26PM 49.9443 1.0372 152° Southeast 404 465 21,100 1,020 Descending FlightAware UK
04:27PM 49.9180 1.0600 152° Southeast 387 445 22,200 480 Climbing FlightAware
04:27PM 49.8689 1.1007 152° Southeast 387 445 21,500 -3,420 Descending FlightAware ADS-B
04:27PM 49.8405 1.1243 152° Southeast 394 453 19,700 -1,200 Descending FlightAware UK
04:27PM 49.8220 1.1397 152° Southeast 382 440 20,900 -1,620 Climbing FlightAware ADS-B
04:28PM 49.7938 1.1633 152° Southeast 392 451 18,900 -1,440 Descending FlightAware UK
04:28PM 49.7824 1.1726 152° Southeast 381 438 20,300 -1,020 Climbing FlightAware ADS-B
04:28PM 49.7566 1.1942 152° Southeast 388 447 18,500 -1,380 Descending FlightAware UK
04:28PM 49.7346 1.2122 152° Southeast 378 435 19,600 -1,620 Climbing FlightAware ADS-B
04:29PM 49.7107 1.2323 152° Southeast 386 444 17,700 -1,200 Descending FlightAware UK
04:29PM 49.6881 1.2513 152° Southeast 376 433 19,000 -1,020 Climbing FlightAware ADS-B
04:29PM 49.6651 1.2706 152° Southeast 384 442 17,200 -1,380 Descending FlightAware UK
04:29PM 49.6412 1.2902 152° Southeast 372 428 18,300 -1,380 Climbing FlightAware ADS-B
04:30PM 49.6099 1.3156 152° Southeast 382 440 16,400 -1,200 Descending FlightAware UK
04:30PM 49.5881 1.3337 152° Southeast 364 419 17,600 -1,620 Climbing FlightAware ADS-B
04:30PM 49.5656 1.3528 152° Southeast 374 430 15,600 -1,440 Descending FlightAware UK
04:31PM 49.5442 1.3711 152° Southeast 360 414 16,900 -1,020 Climbing FlightAware ADS-B
04:31PM 49.5222 1.3896 152° Southeast 374 430 15,100 -1,200 Descending FlightAware UK
04:31PM 49.5001 1.4077 152° Southeast 356 410 16,300 -1,380 Climbing FlightAware ADS-B
04:31PM 49.4699 1.4325 152° Southeast 370 426 14,300 -1,200 Descending FlightAware UK
04:32PM 49.4564 1.4434 152° Southeast 351 404 15,700 -1,200 Climbing FlightAware ADS-B
04:32PM 49.4268 1.4678 152° Southeast 358 412 13,700 -1,380 Descending FlightAware UK
04:32PM 49.4128 1.4794 152° Southeast 355 409 15,000 -1,200 Climbing FlightAware ADS-B
04:32PM 49.3839 1.5032 152° Southeast 362 417 13,100 -1,020 Descending FlightAware UK
04:33PM 49.3687 1.5154 152° Southeast 358 412 14,500 1,620 Climbing FlightAware ADS-B
04:33PM 49.3359 1.5424 152° Southeast 354 407 14,000 -1,320 Descending FlightAware ADS-B
04:33PM 49.3232 1.5544 148° Southeast 351 404 13,800 -1,440 Descending FlightAware ADS-B
04:33PM 49.3143 1.5671 137° Southeast 349 402 13,600 -1,800 Descending FlightAware ADS-B
04:33PM 49.3109 1.5733 130° Southeast 348 400 13,500 -2,040 Descending FlightAware ADS-B
04:33PM 49.3061 1.5846 123° Southeast 348 400 13,300 -1,440 Descending FlightAware ADS-B
04:33PM 49.3016 1.5992 115° Southeast 347 399 13,200 -1,020 Descending FlightAware ADS-B
04:34PM 49.2991 1.6113 108° East 346 398 13,100 -720 Descending FlightAware ADS-B
04:34PM 49.2976 1.6220 102° East 344 396 13,100 -600 Level FlightAware ADS-B
04:34PM 49.2966 1.6373 96° East 341 392 13,000 -4,500 Descending FlightAware ADS-B
04:34PM 49.2959 1.6874 96° East 346 398 11,100 -1,200 Descending FlightAware UK
04:34PM 49.2941 1.7203 96° East 335 386 12,300 -1,200 Climbing FlightAware ADS-B
04:35PM 49.2926 1.7574 96° East 336 387 10,500 -600 Descending FlightAware UK
04:35PM 49.2908 1.7902 96° East 331 381 12,000  Climbing FlightAware ADS-B
04:35PM 49.2891 1.8277 96° East 334 384 10,500  Descending FlightAware UK
04:35PM 49.2877 1.8594 96° East 323 372 12,000  Climbing FlightAware ADS-B
04:36PM 49.2861 1.8970 96° East 330 380 10,500  Descending FlightAware UK
04:36PM 49.2843 1.9280 96° East 324 373 12,000  Climbing FlightAware ADS-B
04:36PM 49.2824 1.9644 96° East 334 384 10,500  Descending FlightAware UK
04:36PM 49.2810 2.0002 96° East 324 373 12,000  Climbing FlightAware ADS-B
04:37PM 49.2788 2.0470 96° East 332 382 10,500  Descending FlightAware UK
04:37PM 49.2778 2.0706 96° East 325 374 12,000  Climbing FlightAware ADS-B
04:37PM 49.2754 2.1160 96° East 334 384 10,500  Descending FlightAware UK
04:37PM 49.2740 2.1435 96° East 326 375 12,000 -600 Climbing FlightAware ADS-B
04:38PM 49.2719 2.1847 96° East 330 380 10,200 -1,620 Descending FlightAware UK
04:38PM 49.2706 2.2125 96° East 327 376 11,200 1,080 Climbing FlightAware ADS-B
04:38PM 49.2673 2.2818 94° East 319 367 11,000 -420 Descending FlightAware ADS-B
04:39PM 49.2639 2.3509 94° East 319 367 10,800 -1,140 Descending FlightAware ADS-B
04:39PM 49.2614 2.4060 94° East 322 371 10,000 -1,500 Descending FlightAware ADS-B
04:40PM 49.2599 2.4346 95° East 313 360 9,900 -780 Descending FlightAware ADS-B
04:40PM 49.2579 2.4734 95° East 304 350 9,600 -840 Descending FlightAware ADS-B
04:40PM 49.2567 2.4966 95° East 296 341 9,500 -720 Descending FlightAware ADS-B
04:40PM 49.2539 2.5279 98° East 290 334 9,300 -720 Descending FlightAware ADS-B
04:40PM 49.2513 2.5528 99° East 283 326 9,200 -1,260 Descending FlightAware ADS-B
04:41PM 49.2473 2.5861 100° East 283 326 8,700 -1,440 Descending FlightAware ADS-B
04:41PM 49.2426 2.6254 100° East 282 325 8,300 -1,200 Descending FlightAware ADS-B
04:41PM 49.2392 2.6551 100° East 278 320 8,000 -1,440 Descending FlightAware ADS-B
04:42PM 49.2359 2.6847 100° East 278 320 7,600 -1,200 Descending FlightAware ADS-B
04:42PM 49.2325 2.7145 100° East 274 315 7,400 -1,020 Descending FlightAware ADS-B
04:42PM 49.2294 2.7428 100° East 270 311 7,100 -1,440 Descending FlightAware ADS-B
04:42PM 49.2259 2.7719 100° East 270 311 6,700 -1,500 Descending FlightAware ADS-B
04:43PM 49.2208 2.8114 101° East 270 311 6,200 -1,440 Descending FlightAware ADS-B
04:43PM 49.2162 2.8431 103° East 269 310 5,800 -1,200 Descending FlightAware ADS-B
04:43PM 49.2144 2.8576 101° East 267 307 5,700 -1,020 Descending FlightAware ADS-B
04:43PM 49.2124 2.8763 99° East 266 306 5,500 -1,320 Descending FlightAware ADS-B
04:43PM 49.2114 2.8844 101° East 266 306 5,400 -1,740 Descending FlightAware ADS-B
04:43PM 49.2104 2.8902 105° East 265 305 5,300 -1,740 Descending FlightAware ADS-B
04:43PM 49.2092 2.8955 109° East 265 305 5,200 -900 Descending FlightAware ADS-B
04:44PM 49.2077 2.9008 113° Southeast 264 304 5,200 -1,020 Level FlightAware ADS-B
04:44PM 49.2059 2.9059 119° Southeast 263 303 5,100 -2,040 Descending FlightAware ADS-B
04:44PM 49.2038 2.9106 124° Southeast 263 303 5,000 -1,740 Descending FlightAware ADS-B
04:44PM 49.2007 2.9159 132° Southeast 263 303 4,900 -900 Descending FlightAware ADS-B
04:44PM 49.1980 2.9199 136° Southeast 263 303 4,900 -1,020 Level FlightAware ADS-B
04:44PM 49.1946 2.9239 142° Southeast 262 302 4,800 -1,740 Descending FlightAware ADS-B
04:44PM 49.1906 2.9277 148° Southeast 261 300 4,700 -1,740 Descending FlightAware ADS-B
04:44PM 49.1872 2.9303 154° Southeast 260 299 4,600 -1,140 Descending FlightAware ADS-B
04:44PM 49.1794 2.9357 156° South 259 298 4,500 -840 Descending FlightAware ADS-B
04:44PM 49.1623 2.9465 157° South 255 293 4,300 -1,200 Descending FlightAware ADS-B
04:44PM 49.1519 2.9526 159° South 257 296 4,000 -1,200 Descending FlightAware ADS-B
04:45PM 49.1349 2.9618 160° South 252 290 3,800 -720 Descending FlightAware ADS-B
04:45PM 49.1221 2.9687 161° South 241 277 3,700 -420 Descending FlightAware ADS-B
04:45PM 49.1183 2.9703 165° South 240 276 3,700  Level FlightAware ADS-B
04:45PM 49.1144 2.9715 168° South 241 277 3,700  Level FlightAware ADS-B
04:45PM 49.1104 2.9723 173° South 239 275 3,700 360 Level FlightAware ADS-B
04:45PM 49.0975 2.9733 177° South 233 268 3,800 180 Climbing FlightAware ADS-B
04:46PM 49.0807 2.9734 180° South 229 264 3,800  Level FlightAware ADS-B
04:46PM 49.0645 2.9731 181° South 229 264 3,800 -300 Level FlightAware ADS-B
04:46PM 49.0551 2.9723 183° South 229 264 3,700 -540 Descending FlightAware ADS-B
04:46PM 49.0520 2.9715 190° South 230 265 3,700  Level FlightAware ADS-B
04:46PM 49.0443 2.9671 200° South 233 268 3,700 480 Level FlightAware ADS-B
04:46PM 49.0404 2.9637 210° Southwest 234 269 3,800 720 Climbing FlightAware ADS-B
04:46PM 49.0374 2.9605 215° Southwest 234 269 3,800  Level FlightAware ADS-B
04:46PM 49.0345 2.9569 219° Southwest 233 268 3,800  Level FlightAware ADS-B
04:46PM 49.0305 2.9507 225° Southwest 233 268 3,800  Level FlightAware ADS-B
04:47PM 49.0243 2.9385 232° Southwest 233 268 3,800  Level FlightAware ADS-B
04:47PM 49.0190 2.9272 235° Southwest 225 259 3,800 -480 Level FlightAware ADS-B
04:47PM 49.0162 2.9203 238° Southwest 223 257 3,700 -360 Descending FlightAware ADS-B
04:47PM 49.0108 2.9048 242° Southwest 216 249 3,700  Level FlightAware ADS-B
04:47PM 49.0091 2.8976 250° West 215 247 3,700  Level FlightAware ADS-B
04:47PM 49.0083 2.8920 258° West 214 246 3,700  Level FlightAware ADS-B
04:47PM 49.0080 2.8859 266° West 212 244 3,700  Level FlightAware ADS-B
04:47PM 49.0079 2.8777 269° West 208 239 3,700 -720 Level FlightAware ADS-B
04:47PM 49.0079 2.8721 270° West 207 238 3,600 -1,440 Descending FlightAware ADS-B
04:48PM 49.0083 2.8585 273° West 207 238 3,400 -1,080 Descending FlightAware ADS-B
04:48PM 49.0083 2.8478 270° West 205 236 3,300 -840 Descending FlightAware ADS-B
04:48PM 49.0078 2.8362 266° West 203 234 3,200 -1,080 Descending FlightAware ADS-B
04:48PM 49.0070 2.8236 264° West 200 230 3,000 -1,440 Descending FlightAware ADS-B
04:48PM 49.0057 2.8071 263° West 203 234 2,700 -1,140 Descending FlightAware ADS-B
04:48PM 49.0043 2.7853 264° West 205 236 2,500 -1,020 Descending FlightAware ADS-B
04:49PM 49.0031 2.7632 265° West 207 238 2,200 -1,020 Descending FlightAware ADS-B
04:49PM 49.0021 2.7422 266° West 201 231 2,000 -1,020 Descending FlightAware ADS-B
04:49PM 49.0011 2.7219 266° West 188 216 1,700 -1,200 Descending FlightAware ADS-B
04:49PM 49.0001 2.7026 265° West 176 203 1,400 -1,080 Descending FlightAware ADS-B
04:50PM 48.9992 2.6870 265° West 166 191 1,200 -720 Descending FlightAware ADS-B
04:50PM 48.9984 2.6737 265° West 162 186 1,100 -900 Descending FlightAware ADS-B
04:50PM 48.9980 2.6642 266° West 161 185 900 -1,020 Descending FlightAware ADS-B
04:50PM 48.9972 2.6469 266° West 162 186 700 -840 Descending FlightAware ADS-B
04:50PM 48.9967 2.6376 265° West 162 186 600 -720 Descending FlightAware ADS-B
04:50PM 48.9961 2.6275 265° West 161 185 500 -1,020 Descending FlightAware ADS-B
04:51PM 48.9953 2.6104 266° West 159 183 200 -1,200 Descending FlightAware ADS-B
04:51PM 48.9945 2.5937 266° West 156 180 -780 Descending FlightAware ADS-B